Location: Asheville, NC
(35.6000°N, 82.5500°W)
Time: 20:46:49
(UTC-04:00)

Vanguard 2 - Pass Details

Date: 12 March 2018
Orbit: 553 x 2939 km, 32.9° (Epoch: 20 June)

Event Time Altitude Azimuth Distance (km) Brightness Sun altitude
Rises 18:11:41 0° 284° (WNW) 6,792 13.4 15.9°
Reaches altitude 10° 18:16:35 10° 279° (W) 5,708 13.4 14.9°
Maximum altitude 18:32:16 47° 214° (SW) 2,946 11.2 11.8°
Drops below altitude 10° 18:43:14 10° 145° (SE) 4,068 11.0 9.6°
Sets 18:46:08 0° 139° (SE) 4,765 11.3 9.1°
